Location: D�bendorf
(47.3954°N, 8.6184°E)
Time: 12:25:22
(UTC+00:00)

Daily predictions for brighter satellites

Satellite Brightness Start Highest point End
(mag) Time Altitude Azimuth Time Altitude Azimuth Time Altitude Azimuth
BREEZE-M DEB (TANK) 4.1 15:58:11 10° W 16:01:58 83° NNW 16:15:01 10° ENE
Cosmos 44 3.5 16:02:02 10° NW 16:07:21 82° NE 16:12:47 10° SE
PSLV R/B 3.9 16:05:12 10° SSE 16:09:16 72° ENE 16:13:19 10° N
CZ-4B R/B 3.4 16:04:45 10° SE 16:09:45 44° ENE 16:14:46 10° N
CZ-4B R/B 4.2 16:06:18 10° S 16:10:26 50° W 16:14:46 10° NNW
H-2A R/B 2.5 16:08:23 10° SSE 16:12:32 59° ENE 16:16:33 10° N
Cosmos 2369 Rocket 2.9 16:09:40 10° NNW 16:14:48 33° NE 16:19:53 10° ESE
MOS 1-B 4.4 16:09:13 10° SSE 16:15:00 76° ENE 16:20:50 10° NNW
Cosmos 1943 Rocket 2.4 16:11:11 10° NNW 16:16:34 49° NE 16:21:59 10° SE
ADEOS Rocket 3.7 16:09:30 10° NNE 16:17:20 81° ESE 16:25:01 10° SSW
Cosmos 2221 4.2 16:15:26 10° SW 16:19:21 33° WNW 16:23:17 10° N
NOAA 12 4.3 16:14:15 10° SE 16:19:22 50° ENE 16:24:30 10° N
H-2A R/B 2.4 16:17:30 10° NNE 16:21:35 46° E 16:25:43 10° S
NOAA 6 4.1 16:20:55 10° SSE 16:26:04 90° E 16:31:15 10° NNW
Okean O Rocket 1.8 16:21:57 10° SE 16:26:08 47° ENE 16:30:23 10° N
Cosmos 1782 3.9 16:23:44 10° SE 16:26:55 24° E 16:30:08 10° NE
Okean-O 4.3 16:25:57 10° E 16:28:07 14° ENE 16:30:19 10° NNE
CRYOSAT 2 4.4 16:24:09 10° N 16:29:03 68° E 16:33:55 10° S
ISS -2.9 16:27:06 10° WNW 16:30:17 38° N 16:32:58 13° ENE
Cosmos 1633 Rocket 3.1 16:26:02 10° N 16:30:22 57° ENE 16:34:39 10° SSE
H-2A R/B 3.6 16:26:52 10° S 16:30:38 55° W 16:34:29 10° NNW
Cosmos 1933 3.4 16:28:30 10° S 16:32:28 57° E 16:36:28 10° NNE
Cosmos 2218 Rocket 4.0 16:30:43 10° N 16:36:48 58° ENE 16:42:51 10° SSE
Cosmos 2366 rocket 4.0 16:31:40 10° N 16:37:46 57° ENE 16:43:47 10° SSE
ERS-2 3.4 16:36:10 12° NE 16:38:35 21° E 16:41:26 10° SSE
Meteor 1-25 Rocket 4.2 16:32:58 10° N 16:38:37 71° ENE 16:44:19 10° SSE
Cosmos 1867 4.0 16:33:42 10° SW 16:39:05 62° NW 16:44:32 10° NNE
Envisat 3.5 16:37:19 10° S 16:42:21 66° WSW 16:47:26 10° NNW
Lacrosse 5 rocket 1.4 16:43:59 10° WSW 16:47:35 57° NNW 16:50:15 16° NE
Cosmos 773 Rocket 4.0 16:43:31 10° SSW 16:48:45 71° ESE 16:54:03 10° NNE
YAOGAN 6 3.5 16:47:54 10° S 16:51:28 53° W 16:54:59 10° NNW
Cosmos 1606 3.9 16:50:30 10° SSW 16:54:14 44° WNW 16:57:58 10° N
Cosmos 2297 4.5 16:48:46 10° NW 16:54:20 57° WSW 16:59:54 10° S
OE (NEXTSAT) 4.5 16:52:50 10° W 16:56:17 70° S 16:58:30 20° ESE
FengYun 1-2 T 4.1 16:51:03 10° SSE 16:56:33 73° ENE 17:02:03 10° N
AQUARIUS 4.2 16:52:04 10° SSE 16:56:33 87° WSW 17:01:05 10° NNW
Feng Yun 1-1 Rocket 4.4 16:51:12 10° SE 16:56:43 52° ENE 17:02:07 10° N
CZ-4B R/B 1.7 16:56:26 20° NE 16:58:10 39° E 17:01:10 10° S
SL-16 R/B 2.5 16:53:13 10° SW 16:58:51 71° WNW 17:04:31 10° NNE
Landsat 5 4.3 16:54:51 10° N 16:59:14 56° WNW 17:03:39 10° SSW
BREEZE-M DEB (TANK) 1.6 17:00:34 10° WSW 17:02:57 65° SSE 17:03:26 42° E
USA 215 4.2 16:59:20 17° E 17:03:12 30° SE 17:08:47 10° S
SMAP 3.6 17:00:59 10° S 17:05:36 63° WSW 17:10:15 10° NNW
Cosmos 1500 3.8 17:02:23 10° N 17:05:55 34° ENE 17:09:26 10° SE
YAOGAN 1 3.5 17:09:19 26° ENE 17:09:23 26° ENE 17:12:57 10° N
USA 238 DEB 4.4 17:04:45 10° S 17:10:18 30° ESE 17:13:06 22° ENE
USA 238 4.4 17:04:51 10° S 17:10:25 30° ESE 17:13:10 22° ENE
Cosmos 1656 Rocket 3.9 17:05:03 10° NNW 17:10:30 47° NE 17:15:51 10° SE
Cosmos 1151 Rocket 3.3 17:08:21 10° SSW 17:12:37 68° WNW 17:16:52 10° N
Cosmos 1470 Rocket 3.5 17:08:32 10° N 17:12:54 90° ESE 17:17:13 10° S
MOS 1 Rocket 4.5 17:13:25 24° ENE 17:15:07 28° E 17:19:40 10° SSE
Cosmos 2263 4.1 17:13:48 10° NNW 17:19:25 67° ENE 17:24:59 10° SE
Cosmos 1515 Rocket 3.4 17:16:13 10° S 17:20:35 75° E 17:25:00 10° NNE
CZ-2C R/B 3.2 17:16:44 10° SE 17:21:22 41° ENE 17:25:51 10° N
Cosmos 923 Rocket 4.5 17:18:32 10° S 17:23:18 38° ESE 17:24:50 31° ENE
Cosmos 1238 Rocket 3.4 17:21:14 10° N 17:25:01 40° ENE 17:29:32 10° SSE
COSMO-SKYMED 1 2.6 17:23:06 21° NNE 17:25:50 57° E 17:30:06 10° S
Cosmos 1689 Rocket 4.5 17:29:01 13° SSE 17:29:01 13° SSE 17:29:30 10° SSE
TELKOM 3 4.0 17:24:12 10° WNW 17:26:18 40° NW 17:26:18 40° NW
USA 281 3.3 17:21:59 10° SE 17:28:17 51° NE 17:34:37 10° NNW
X-37B 1.1 17:26:06 10° WSW 17:29:10 46° S 17:29:28 44° SSE
SAR-Lupe-4 3.6 17:29:13 50° E 17:29:25 51° E 17:32:55 10° S
YAOGAN 3 4.5 17:25:09 10° SSE 17:29:31 88° ENE 17:33:55 10° NNW
Nadezhda 3 Rocket 4.1 17:23:50 10° SSE 17:29:59 54° E 17:36:10 10° NNE
Helios 1A Rocket 3.3 17:33:25 42° NE 17:33:25 42° NE 17:36:41 10° N
Meteor 2-6 Rocket 4.2 17:27:35 10° S 17:33:01 57° E 17:37:14 16° NNE
Cosmos 2228 Rocket 3.2 17:28:49 10° SSE 17:33:11 50° E 17:34:29 38° NE
Meteor 1-4 Rocket 3.4 17:31:07 10° SSW 17:34:36 49° WNW 17:37:26 14° N
H-2A R/B 2.4 17:35:18 36° E 17:36:13 39° ENE 17:40:58 10° N
Cosmos 1812 2.9 17:33:17 10° S 17:36:35 49° ESE 17:36:35 49° ESE
USA 267 3.5 17:34:11 30° E 17:37:14 53° NNE 17:43:34 10° NW
Cosmos 1821 Rocket 3.9 17:31:27 10° N 17:37:42 70° E 17:44:00 10° SSE
Cosmos 1939 Rocket 3.0 17:34:56 10° S 17:38:48 73° WSW 17:42:45 10° NNW
CZ-4 R/B 4.3 17:36:27 10° SSE 17:40:35 81° ENE 17:44:44 10° NNW
Meteor 1-11 Rocket 3.9 17:35:09 10° N 17:40:46 49° ENE 17:46:27 10° SSE
CZ-4 R/B 1.4 17:41:26 53° NE 17:41:26 53° NE 17:45:01 10° N
NOSS 3-3 (A) 4.4 17:34:10 10° NW 17:41:33 70° NE 17:47:58 18° SE
NOSS 3-3 (C) 4.4 17:34:14 10° NW 17:41:39 69° NE 17:47:58 19° SE
PSLV R/B 3.9 17:42:20 55° ESE 17:42:20 55° ESE 17:46:11 10° S
Cosmos 1933 Rocket 3.9 17:38:29 10° NNW 17:42:57 66° W 17:47:21 10° S
Cosmos 44 Rocket 3.3 17:37:54 10° NNW 17:43:04 69° NE 17:45:09 36° ESE
BREEZE-M DEB (TANK) 3.8 17:40:37 10° SSW 17:42:53 20° SSE 17:42:53 20° SSE
CSL-04 Rocket 4.0 17:44:05 40° NE 17:44:05 40° NE 17:48:39 10° N
IRS-1C Rocket 4.1 17:39:50 10° SSE 17:45:07 85° WSW 17:50:27 10° NNW
SAR-Lupe-1 3.9 17:46:35 76° SSE 17:46:35 76° SSE 17:49:59 10° SSW
Lacrosse 4 Rocket 3.6 17:46:17 10° SSE 17:46:58 14° SSE 17:46:58 14° SSE
SL-24 R/B 3.6 17:49:33 69° NNE 17:49:59 89° WNW 17:53:38 10° SSW
Cosmos 1680 Rocket 3.7 17:45:03 10° S 17:50:06 49° ESE 17:50:19 49° E
Cosmos 1603 3.6 17:48:45 10° SSW 17:54:23 90° WNW 17:56:56 34° NNE
CZ-2D R/B 3.5 17:51:53 10° S 17:55:40 66° W 17:59:31 10° NNW
H-2A R/B 4.5 17:54:09 10° NNW 17:57:17 20° WNW 18:00:26 10° WSW
Cosmos 1943 3.1 17:52:04 10° SSW 17:57:44 86° ESE 17:59:58 39° NNE
Cosmos 2369 Rocket 3.2 17:53:35 10° NW 17:59:01 48° WSW 18:04:24 10° S
Cosmos 1943 Rocket 4.1 17:55:21 10° NW 18:00:04 29° WSW 18:04:48 10° SSW
Meteor 1-5 Rocket 4.4 17:55:17 10° NNW 18:01:13 77° W 18:06:55 10° S
Okean O Rocket 4.3 17:59:35 10° SW 18:02:45 19° W 18:05:57 10° NW
Okean-O 2.6 17:59:33 10° SSE 18:03:59 82° WSW 18:08:27 10° NNW
Cosmos 1371 Rocket 4.1 17:59:11 10° NNW 18:03:40 55° NNE 18:03:40 55° NNE
Cosmos 1461 4.4 18:00:13 10° S 18:02:44 28° SSE 18:02:44 28° SSE
ARGOS 3.9 18:08:32 37° NNE 18:08:32 37° NNE 18:11:56 10° N
ISS -1.9 18:04:07 10° WNW 18:05:55 28° NW 18:05:55 28° NW
CENTAUR R/B 2.7 18:02:18 10° SSW 18:07:44 48° ESE 18:07:44 48° ESE
Cosmos 2056 Rocket 3.9 18:05:22 10° NNW 18:09:29 48° NNE 18:09:29 48° NNE
Cosmos 2112 Rocket 4.2 18:05:27 10° S 18:09:53 56° SSE 18:09:53 56° SSE
ERS-2 3.9 18:10:45 23° NNW 18:12:10 31° WNW 18:15:24 10° SW
SKYMED 2 4.5 18:11:44 25° N 18:13:53 47° WNW 18:18:02 10° SW
NOSS 3-2 (C) 3.6 18:10:33 10° SSW 18:15:10 48° SSE 18:15:10 48° SSE
Cosmos 1869 Rocket 3.8 18:13:13 10° NNW 18:17:42 69° W 18:17:49 68° WSW
BREEZE-M DEB (TANK) 3.7 18:13:47 10° WSW 18:19:59 52° SSW 18:19:59 52° SSW
Meteor 1-27 Rocket 4.1 18:16:13 10° S 18:20:11 48° SSE 18:20:11 48° SSE
Meteor 1-10 Rocket 4.4 18:20:37 10° SSW 18:26:13 68° WNW 18:28:50 32° N
Lacrosse 5 rocket 3.6 18:24:32 10° WNW 18:25:53 16° NW 18:25:53 16° NW
Cosmos 371 Rocket 4.2 18:24:44 10° NNW 18:28:00 42° NNW 18:28:00 42° NNW
CZ-4B R/B 4.3 18:29:34 12° NW 18:30:06 13° WNW 18:31:36 10° W
NOSS 3-2 (A) 3.4 18:35:36 10° SW 18:41:19 74° NW 18:41:27 73° NW
YAOGAN 1 4.2 18:46:28 31° WNW 18:46:28 31° WNW 18:49:21 10° NNW
USA 215 3.1 18:46:42 89° ENE 18:46:44 90° SSW 18:53:17 10° SW
MOS 1 Rocket 4.5 18:52:44 44° NW 18:53:31 48° WNW 18:58:39 10° SW
USA 238 DEB 3.8 18:54:11 10° SW 19:00:35 67° NW 19:00:35 67° NW
USA 238 3.8 18:54:15 10° SW 19:00:39 67° WNW 19:00:39 67° WNW
USA 281 4.4 19:06:56 10° S 19:12:56 37° WSW 19:18:58 10° NW
H-2A R/B 3.7 19:15:55 31° W 19:15:55 31° W 19:20:16 10° NNW
CZ-4 R/B 4.5 19:17:28 13° WNW 19:17:28 13° WNW 19:18:36 10° WNW
USA 267 3.8 19:21:32 55° W 19:21:32 55° W 19:26:42 10° NW
CENTAUR R/B 4.4 19:52:41 10° WSW 19:54:58 23° W 19:54:58 23° W
